Torna al catalogo

ATLAS 5 CENTAUR DEB

AttivoHEO
NORAD 43959·DEBRIS·🇺🇸 United States

Lanciato Sep 17, 2014 da Cape Canaveral Space Force Station

Loading…

Prossimi Passaggi (prossime 24 ore)

TLE

AggiornatoSource: Space-Track

Epoca: Sep 6, 2026, 01:20 UTC

1 43959U 14055N   26249.05559419 -.00000152  00000-0  00000+0 0  9994
2 43959  20.1916 129.7165 4999455 187.1790 161.4551  1.81440206 53131

Traccia ATLAS 5 CENTAUR DEB in tempo reale con AllMySat

Download on the App Store